Regional Weather Roundup
Issued by NWS

Home | Current Version | Previous Version | Graphics & Text | Print | Product List | Glossary On
Versions: 1 2 3 4 5 6 7 8 9 10 11 12 13 14 15 16 17 18 19 20 21 22 23 24 25 26 27 28 29 30 31 32 33 34 35 36 37 38 39 40 41 42 43 44 45 46 47 48 49 50
000
ASUS43 KTOP 230659
RWRKS

WEATHER ROUNDUP FOR KANSAS
NATIONAL WEATHER SERVICE GOODLAND KS
200 AM CDT SAT MAY 23 2015

NOTE:  "FAIR" INDICATES FEW OR NO CLOUDS BELOW 12,000 FEET WITH NO
SIGNIFICANT WEATHER AND/OR OBSTRUCTIONS TO VISIBILITY.

KSZ001>006-013>018-027>032-041>047-230800-
NORTHWEST KANSAS

CITY           SKY/WX    TMP DP  RH WIND       PRES   REMARKS
GOODLAND       LGT RAIN  53  53 100 SE17G33   30.03S FOG
HAYS           CLOUDY    54  48  82 SE13G18   30.13S
HILL CITY      CLOUDY    55  53  93 S14G23    30.11S
RUSSELL        CLOUDY    54  54 100 S14       30.13S
$$

KSZ061>065-074>080-084>089-230800-
SOUTHWEST KANSAS

CITY           SKY/WX    TMP DP  RH WIND       PRES   REMARKS
DODGE CITY     CLOUDY    54  52  93 SE16      30.11S FOG
ELKHART          N/A     57  51  80 S17         N/A
GARDEN CITY    CLOUDY    54  54 100 SE18      30.05F
GREAT BEND     CLOUDY    54  50  87 SE10      30.14S
LIBERAL        CLOUDY    57  54  88 S13G18    30.06F
$$

KSZ066>073-081>083-090>101-230800-
SOUTHEAST KANSAS

CITY           SKY/WX    TMP DP  RH WIND       PRES   REMARKS
CHANUTE        CLOUDY    59  54  83 SE5       30.18S
COFFEYVILLE    CLOUDY    60  53  77 S6        30.17F
HUTCHINSON     CLOUDY    55  52  89 SE8       30.16F FOG
NEWTON         CLOUDY    54  48  82 SE8       30.18F
PARSONS        CLOUDY    61  54  77 CALM      30.19S
WICHITA INTL   CLOUDY    55  54  96 S8        30.16S FOG
WICHITA JABRA  CLOUDY    54  53  97 SE10      30.16S FOG
WINFIELD       CLOUDY    55  55 100 SE6       30.18S FOG
$$

KSZ007>012-019>026-033>040-048>060-102>105-230800-
NORTHEAST KANSAS

CITY           SKY/WX    TMP DP  RH WIND       PRES   REMARKS
CONCORDIA      CLOUDY    55  50  83 S10       30.17S
EMPORIA        LGT RAIN  56  54  93 S3        30.18R
LAWRENCE       CLOUDY    60  52  74 SE7       30.19S
MANHATTAN      CLOUDY    58  51  78 CALM      30.17F
OLATHE IND     CLOUDY    60  52  74 SE9       30.20S
OLATHE EXE     CLOUDY    60  52  74 SE8       30.19S
SALINA         CLOUDY    56  52  86 SE9       30.17S
TOPEKA BILLARD LGT RAIN  60  54  80 E6        30.18F
TOPEKA FORBES  CLOUDY    60  53  77 SE6       30.17F
$$



USA.gov is the U.S. government's official web portal to all federal, state and local government web resources and services.